"Pseudo-MPEC" for A10U5mI

Created 2023 Mar 26 14:22:03 UT using Find_Orb

Click here for an explanation of pseudo-MPECs

 
 Astrometry: 
     A10U5mI* C2023 03 25.42670212 50 33.410-09 57 55.55   ~3PNM 16.24oVNEOCPT05
     A10U5mI  C2023 03 25.46216912 58 29.842-09 54 00.76   ~3PNM 16.42oVNEOCPT05
     A10U5mI  C2023 03 25.46573012 59 16.889-09 53 33.83   ~3PNM 16.46oVNEOCPT05
     A10U5mI  C2023 03 25.49249313 05 06.816-09 49 53.76   ~3PNM 16.41oVNEOCPT05
     A10U5mI  C2023 03 25.49875113 06 27.799-09 48 57.56   ~3PNM 16.45oVNEOCPT05
     A10U5mI  C2023 03 25.50192613 07 08.542-09 48 28.66   ~3PNM 16.33oVNEOCPT05
     A10U5mI  C2023 03 25.53593413 14 20.438-09 42 52.42   ~3PNM 16.48oVNEOCPT05
     A10U5mI KC2023 03 25.97251914 35 24.94 -08 25 12.9    ~3PNq 17.7 GXNEOCP595
     A10U5mI KC2023 03 25.97433914 35 39.31 -08 24 50.2    ~3PNq 16.9 GXNEOCP595
     A10U5mI KC2023 03 25.97616414 35 53.65 -08 24 25.9    ~3PNq 17.1 GXNEOCP595
     A10U5mI KC2023 03 25.97981814 36 22.29 -08 23 40.7    ~3PNq 17.6 GXNEOCP595
     A10U5mI KC2023 03 25.98164614 36 36.56 -08 23 17.7    ~3PNq 17.4 GXNEOCP595
     A10U5mI bC2023 03 26Z$L6Em#Jl(En6-u1U8]W+CDB-N'E!=Yi$6?(]HNQ9m)n_fkdJgqRL01
     A10U5mI bC2023 03 26H=-ewf/9DE3(5.4-MMU0u:w!_a%M2WO)do*$t(#a/`v=t]D!8UvSL01
     A10U5mI bC2023 03 26,RlG1s3CI=arwlvqtS2]9.UgFyh^.?k:q^;\WO%ZFgRC3(o-\'EOL01
     A10U5mI bC2023 03 26j=6S_tb$@VO$L25!kpGXDk+9SAuRpeRgU_M)G+IX5'*!=_lg,%C*L01
     A10U5mI bC2023 03 26pND#IAstrometrysU@^aa9GhBHNFZcMddDIVe/[/:,78ca1?[IZBL01
     A10U5mI KC2023 03 26[e8^9^f]f0,BPpX_0dPM73Fr6[oRZjTs)suoVaY]/2oHvYyxa6ea204
     A10U5mI KC2023 03 26c!BX-9lRme[@`*P!cm8MY.u0Atb\eredacted;ND()@:kY,C'q$G204
     A10U5mI KC2023 03 261bRfKEXxX@NhQxgYvI=c-PoP1@.3+peqvd*NBJclick1f%?Fu;pk204
     A10U5mI KC2023 03 26.10788414 53 44.259-07 18 33.21   ~3Q3M 17.7 GXNEOCPY00
     A10U5mI KC2023 03 26.11121214 54 06.315-07 17 59.00   ~3Q3M 17.9 GXNEOCPY00
     A10U5mI KC2023 03 26.11539714 54 33.876-07 17 15.66   ~3Q3M 17.6 GXNEOCPY00
     A10U5mI KB2023 03 2623y=])NWherel;c48jggiCR/HnNICD?40,gMiKVG=K03RxLv=m=`K74
     A10U5mI KB2023 03 266oI9cRb`v[u`ghWgDX^IBr!@xR7koQ[e!N(S6i)qi9Z1J/(:Y$fZK74
     A10U5mI KB2023 03 26Ddffor6/6gEUBs]u0LX[DtY3D[CO*6)W?jm`5H).+Xr27T0m(i'JK74
     A10U5mI KB2023 03 26#-T%lppuvMn@@.UB7d'J\9ajJTsm4r8aLqSBA(rnP9h_n0P2lI+;K74
     A10U5mI KB2023 03 269/If#^fuP(!G[Ci;explanation7n.-#j8i\88B.,+Wrb;_7kg8mK74
     A10U5mI KC2023 03 26[\tQsi_SPxh`4[xVi*F#$p-].9D64udW4=a+o*k*eC:.(V.+5J!+H21
     A10U5mI KC2023 03 26X892+7I?23P!*8,BQ^atxoU#aDNO`TBL:4uYb0!Ga!x8__g].Cl1H21
     A10U5mI KC2023 03 26+69!?S0JPU)Prm,sImtG`Y,':J//ys1sMA5-k?NIhvUaE#[m=:SxH21
     A10U5mI KC2023 03 26WnH@N2sGClN[[cR7$@g3(3j=ZaX3_i[bc/t\WqO+idAResCC91VuH21
     A10U5mI KC2023 03 26xG9X.KEH:'0W6^9G/BSx-t*LGMo:8%66)Hi.n7Hu!Ye_r3Ho@FVnH21
     A10U5mI 1C2023 03 26.42495515 24 26.150-06 50 47.80   ~3QB7 19.08GVNEOCP703
     A10U5mI 1C2023 03 26.43545615 25 12.900-06 49 00.50   ~3QB7       VNEOCP703
     A10U5mI 1C2023 03 26.44070515 25 35.960-06 48 08.80   ~3QB7       VNEOCP703

Station data:
(204) Schiaparelli Observatory  (N45.867930 E8.770800)  Italy.  Observer L.
   Buzzi. 0.60-m f/4.64 Newtonian + CCD0.84-m f/3.5 reflector + CCD.
(595) Farra d'Isonzo  (N45.915731 E13.525780)  Italy.  Observers S. Aschi, E.
   Pettarin, G. Panterotto. Measurers S. Aschi, E. Pettarin. 0.40-m f/5.15
   reflector + CCD.
(703) Catalina Sky Survey  (N32.417003 W110.732640)  US/Arizona.  Observers
   T. A. Pruyne, B. M. Africano, E. J. Christensen, G. A. Farneth, D. C.
   Fuls, A. R. Gibbs, A. D. Grauer, H. Gröller, J. A. Johnson, R. A.
   Kowalski, S. M. Larson, G. J. Leonard, D. Rankin, R. L. Seaman, F. C.
   Shelly, K. W. Wierzchoś. 0.68 m Schmidt + 10K CCD.
(H21) Astronomical Research Observatory, Westfield  (N39.483054 W87.968270)
   US/Illinois.  Observer R. Holmes. Measurers S. Foglia, L. Buzzi, T.
   Linder, R. Holmes. 0.76-m f/3.0 astrograph + CCD0.81-m f/4.0 astrograph +
   CCD0.61-m f/4.5 astrograph + CCD0.40-m f/5.32 astrograph + CCD.
(K74) Muensterschwarzach Observatory, Schwarzach  (N49.805276 E10.236400)
   Germany.  Observer C. Gerhard. 0.30-m f/3.75 Newtonian reflector + CCD.
(L01) Višnjan Observatory, Tičan  (N45.290897 E13.749300)  Croatia.
   Observers K. Korlević, D. Pujagic, V. Dobos. Measurers D. Pujagic, K.
   Korlević. 1.0-m f/2.9 reflector + CCD.
(T05) ATLAS-HKO, Haleakala  (N20.707571 W156.257010)  US/Hawaii.  Observers
   L. Denneau, A. Heinze, H. Weiland, J. Tonry, H. Flewelling, A.
   Fitzsimmons, D. Young, B. Stalder. Measurers L. Denneau, A. Heinze, J.
   Tonry. 0.5-m f/2.0 Schmidt + CCD.
(Y00) SONEAR Observatory, Oliveira  (S20.715080 W44.784960)  Brazil.
   Observers C. Jacques, E. Pimentel, J. Barros. Measurer C. Jacques. 0.45-m
   f/2.9 astrograph + CCD.

Orbital elements:  A10U5mI
   Perigee 2023 Mar 25.14412 +/- 8.78e-6 TT =  3:27:31 (JD 2460028.64412)
Epoch 2023 Mar 26.0 TT = JDT 2460029.5                           AutoNEOCP
q417294.419 +/- 44.9                (J2000 equator)
H   28.29 G 0.15                    Peri.  260.80731 +/- 0.0011
                                    Node   273.34538 +/- 0.00056
e  31.7531792 +/- 0.0105            Incl.    9.66573 +/- 0.00008
From 36 observations 2023 Mar. 25-26 (24.3 hr); mean residual 0".47
Residuals in arcseconds: 
230325 T05  .64+  .14+    230326 L01  .61-  .06+    230326 K74  .04+  .13-    
230325 T05  1.1+  .03+    230326 L01  .64-  .05-    230326 K74  .03+  .36+    
230325 T05  .12+  .07+    230326 L01  .64-  .06-    230326 K74  .02-  .13+    
230325 T05  1.5-  .15-    230326 L01  .62-  .36-    230326 K74  .18+  .10-    
230325 T05  .71+  .06+    230326 L01  .60-  .24+    230326 H21  .29+  .32+    
230325 T05  1.1-  .08-    230326 204  .01+  .29-    230326 H21  .51+  .10+    
230325 T05  .74+  .05+    230326 204  .27-  .11-    230326 H21  .58+  .16+    
230325 595  .16+  .04-    230326 204  .08+  .11-    230326 H21  .50+  .02+    
230325 595  .20+  .33-    230326 Y00  .12+  .08-    230326 H21  .62+  .13-    
230325 595  .24-  .90+    230326 Y00  .17+  .17-    230326 703  .27-  .81-    
230325 595  .55-  .13-    230326 Y00  .17+  .01+    230326 703  .05+  .92+    
230325 595  .76-  .28-    230326 K74  .24+  .12-    230326 703  1.3-  .10-    

Ephemerides (geocentric):
Date (UTC) HH   RA             Dec           delta  r     elong  mag " sig PA
---- --------  ------------   ------------  ------ ------ -----  --- --------
2023 03 26 14  15 36 37.927   -06 08 24.67  800998 1.0010 130.7 18.8 .134  10
2023 03 26 15  15 39 33.664   -06 02 38.88  817904 1.0010 130.0 18.9 .137  15
2023 03 26 16  15 42 22.191   -05 57 03.86  834933 1.0010 129.4 18.9 .142  20
2023 03 26 17  15 45 03.895   -05 51 39.29  852076 1.0011 128.8 19.0 .147  25
2023 03 26 18  15 47 39.142   -05 46 24.86  869326 1.0011 128.2 19.1 .154  29
2023 03 26 19  15 50 08.277   -05 41 20.25  886677 1.0011 127.6 19.1 .161  33
2023 03 26 20  15 52 31.620   -05 36 25.12  904123 1.0012 127.0 19.2 .169  37
2023 03 26 21  15 54 49.476   -05 31 39.18  921658 1.0012 126.5 19.2 .178  40
2023 03 26 22  15 57 02.127   -05 27 02.08  939278 1.0013 126.0 19.3 .187  43
2023 03 26 23  15 59 09.841   -05 22 33.52  956977 1.0013 125.5 19.3 .197  45
2023 03 27 00  16 01 12.869   -05 18 13.18  974751 1.0013 125.0 19.4 .207  48
2023 03 27 01  16 03 11.445   -05 14 00.78  992597 1.0014 124.6 19.5 .217  50
2023 03 27 02  16 05 05.790   -05 09 56.02  .00675 1.0014 124.1 19.5 .227  52
2023 03 27 03  16 06 56.113   -05 05 58.61  .00687 1.0015 123.7 19.6 .238  53
2023 03 27 04  16 08 42.610   -05 02 08.28  .00700 1.0015 123.3 19.6 .248  55
2023 03 27 05  16 10 25.463   -04 58 24.76  .00712 1.0015 122.9 19.7 .259  56
2023 03 27 06  16 12 04.846   -04 54 47.81  .00724 1.0016 122.6 19.7 .269  58
2023 03 27 07  16 13 40.923   -04 51 17.17  .00736 1.0016 122.2 19.7 .280  59
2023 03 27 08  16 15 13.846   -04 47 52.61  .00748 1.0016 121.9 19.8 .290  60
2023 03 27 09  16 16 43.761   -04 44 33.89  .00760 1.0017 121.5 19.8 .301  61
2023 03 27 10  16 18 10.804   -04 41 20.81  .00773 1.0017 121.2 19.9 .311  62
2023 03 27 11  16 19 35.103   -04 38 13.15  .00785 1.0018 120.9 19.9 .322  62
2023 03 27 12  16 20 56.782   -04 35 10.71  .00797 1.0018 120.6 20.0 .332  63
2023 03 27 13  16 22 15.953   -04 32 13.30  .00810 1.0018 120.3 20.0 .342  64
2023 03 27 14  16 23 32.727   -04 29 20.73  .00822 1.0019 120.0 20.1 .352  64
2023 03 27 15  16 24 47.206   -04 26 32.83  .00834 1.0019 119.7 20.1 .362  65
2023 03 27 16  16 25 59.486   -04 23 49.41  .00847 1.0020 119.5 20.1 .372  66
2023 03 27 17  16 27 09.660   -04 21 10.34  .00859 1.0020 119.2 20.2 .382  66
2023 03 27 18  16 28 17.816   -04 18 35.43  .00872 1.0020 119.0 20.2 .391  67
2023 03 27 19  16 29 24.035   -04 16 04.56  .00884 1.0021 118.7 20.2 .401  67
2023 03 27 20  16 30 28.395   -04 13 37.57  .00897 1.0021 118.5 20.3 .410  67
2023 03 27 21  16 31 30.972   -04 11 14.33  .00909 1.0022 118.3 20.3 .419  68
2023 03 27 22  16 32 31.836   -04 08 54.70  .00922 1.0022 118.1 20.4 .428  68
2023 03 27 23  16 33 31.054   -04 06 38.56  .00934 1.0023 117.9 20.4 .437  69
2023 03 28 00  16 34 28.688   -04 04 25.80  .00947 1.0023 117.7 20.4 .446  69
2023 03 28 01  16 35 24.801   -04 02 16.28  .00959 1.0023 117.5 20.5 .455  69
2023 03 28 02  16 36 19.449   -04 00 09.92  .00972 1.0024 117.3 20.5 .463  69
2023 03 28 03  16 37 12.687   -03 58 06.59  .00984 1.0024 117.1 20.5 .472  70
2023 03 28 04  16 38 04.567   -03 56 06.19  .00997 1.0025 116.9 20.6 .480  70
2023 03 28 05  16 38 55.140   -03 54 08.64  .01010 1.0025 116.8 20.6 .488  70
2023 03 28 06  16 39 44.451   -03 52 13.83  .01022 1.0025 116.6 20.6 .496  70
2023 03 28 07  16 40 32.548   -03 50 21.68  .01035 1.0026 116.4 20.7 .504  71
2023 03 28 08  16 41 19.471   -03 48 32.09  .01048 1.0026 116.3 20.7 .512  71
2023 03 28 09  16 42 05.264   -03 46 45.00  .01060 1.0027 116.1 20.7 .519  71
2023 03 28 10  16 42 49.964   -03 45 00.31  .01073 1.0027 116.0 20.7 .527  71
2023 03 28 11  16 43 33.610   -03 43 17.95  .01086 1.0028 115.8 20.8 .534  71
2023 03 28 12  16 44 16.237   -03 41 37.86  .01098 1.0028 115.7 20.8 .542  72
2023 03 28 13  16 44 57.879   -03 39 59.95  .01111 1.0029 115.6 20.8 .549  72